utcTime,localTime,pm25,nowcast
2022-09-09 15:00:00 +0000,2022-09-09 08:00:00 -0700,3.3,NA
2022-09-09 16:00:00 +0000,2022-09-09 09:00:00 -0700,3.4,3.3
2022-09-09 17:00:00 +0000,2022-09-09 10:00:00 -0700,4.6,3.9
2022-09-09 18:00:00 +0000,2022-09-09 11:00:00 -0700,5.1,4.4
2022-09-09 19:00:00 +0000,2022-09-09 12:00:00 -0700,6,5.2
2022-09-09 20:00:00 +0000,2022-09-09 13:00:00 -0700,11.1,8.2
2022-09-09 21:00:00 +0000,2022-09-09 14:00:00 -0700,21.5,14.9
2022-09-09 22:00:00 +0000,2022-09-09 15:00:00 -0700,15.6,15.2
2022-09-09 23:00:00 +0000,2022-09-09 16:00:00 -0700,10.1,12.6
2022-09-10 00:00:00 +0000,2022-09-09 17:00:00 -0700,7.4,10
2022-09-10 01:00:00 +0000,2022-09-09 18:00:00 -0700,8,9
2022-09-10 02:00:00 +0000,2022-09-09 19:00:00 -0700,10.5,9.7
2022-09-10 03:00:00 +0000,2022-09-09 20:00:00 -0700,18.3,14
2022-09-10 04:00:00 +0000,2022-09-09 21:00:00 -0700,19.2,16.6
2022-09-10 05:00:00 +0000,2022-09-09 22:00:00 -0700,22.6,19.6
2022-09-10 06:00:00 +0000,2022-09-09 23:00:00 -0700,27.6,23.6
2022-09-10 07:00:00 +0000,2022-09-10 00:00:00 -0700,29.9,26.7
2022-09-10 08:00:00 +0000,2022-09-10 01:00:00 -0700,28.9,27.8
2022-09-10 09:00:00 +0000,2022-09-10 02:00:00 -0700,28.9,28.3
2022-09-10 10:00:00 +0000,2022-09-10 03:00:00 -0700,25.1,26.7
2022-09-10 11:00:00 +0000,2022-09-10 04:00:00 -0700,26.8,26.7
2022-09-10 12:00:00 +0000,2022-09-10 05:00:00 -0700,26.2,26.4
2022-09-10 13:00:00 +0000,2022-09-10 06:00:00 -0700,26.9,26.6
2022-09-10 14:00:00 +0000,2022-09-10 07:00:00 -0700,24.2,25.7
2022-09-10 15:00:00 +0000,2022-09-10 08:00:00 -0700,25.5,25.7
2022-09-10 16:00:00 +0000,2022-09-10 09:00:00 -0700,26,26
2022-09-10 17:00:00 +0000,2022-09-10 10:00:00 -0700,25.6,26
2022-09-10 18:00:00 +0000,2022-09-10 11:00:00 -0700,25.5,25.9
2022-09-10 19:00:00 +0000,2022-09-10 12:00:00 -0700,38.8,30.6
2022-09-10 20:00:00 +0000,2022-09-10 13:00:00 -0700,41.8,35.6
2022-09-10 21:00:00 +0000,2022-09-10 14:00:00 -0700,54.7,45.8
2022-09-10 22:00:00 +0000,2022-09-10 15:00:00 -0700,46.1,45.9
2022-09-10 23:00:00 +0000,2022-09-10 16:00:00 -0700,29.6,37.7
2022-09-11 00:00:00 +0000,2022-09-10 17:00:00 -0700,24.4,31
2022-09-11 01:00:00 +0000,2022-09-10 18:00:00 -0700,23.4,27.2
2022-09-11 02:00:00 +0000,2022-09-10 19:00:00 -0700,23.3,25.2
2022-09-11 03:00:00 +0000,2022-09-10 20:00:00 -0700,26.7,25.9
2022-09-11 04:00:00 +0000,2022-09-10 21:00:00 -0700,30.4,28.1
2022-09-11 05:00:00 +0000,2022-09-10 22:00:00 -0700,24.8,26.4
2022-09-11 06:00:00 +0000,2022-09-10 23:00:00 -0700,25,25.7
2022-09-11 07:00:00 +0000,2022-09-11 00:00:00 -0700,26.4,26
2022-09-11 08:00:00 +0000,2022-09-11 01:00:00 -0700,26.5,26.2
2022-09-11 09:00:00 +0000,2022-09-11 02:00:00 -0700,27.5,26.8
2022-09-11 10:00:00 +0000,2022-09-11 03:00:00 -0700,27,26.6
2022-09-11 11:00:00 +0000,2022-09-11 04:00:00 -0700,34.6,29.3
2022-09-11 12:00:00 +0000,2022-09-11 05:00:00 -0700,28.9,29.2
2022-09-11 13:00:00 +0000,2022-09-11 06:00:00 -0700,27.9,28.7
2022-09-11 14:00:00 +0000,2022-09-11 07:00:00 -0700,29,28.8
2022-09-11 15:00:00 +0000,2022-09-11 08:00:00 -0700,28.6,28.7
2022-09-11 16:00:00 +0000,2022-09-11 09:00:00 -0700,23.1,26.8
2022-09-11 17:00:00 +0000,2022-09-11 10:00:00 -0700,22.2,25.1
2022-09-11 18:00:00 +0000,2022-09-11 11:00:00 -0700,14.6,19.3
2022-09-11 19:00:00 +0000,2022-09-11 12:00:00 -0700,17.2,18.2
2022-09-11 20:00:00 +0000,2022-09-11 13:00:00 -0700,29.1,23.6
2022-09-11 21:00:00 +0000,2022-09-11 14:00:00 -0700,33.5,28.5
2022-09-11 22:00:00 +0000,2022-09-11 15:00:00 -0700,31.3,29.9
2022-09-11 23:00:00 +0000,2022-09-11 16:00:00 -0700,26.5,28.2
2022-09-12 00:00:00 +0000,2022-09-11 17:00:00 -0700,23,25.6
2022-09-12 01:00:00 +0000,2022-09-11 18:00:00 -0700,16.7,21.1
2022-09-12 02:00:00 +0000,2022-09-11 19:00:00 -0700,17.7,19.4
2022-09-12 03:00:00 +0000,2022-09-11 20:00:00 -0700,17.2,18.3
2022-09-12 04:00:00 +0000,2022-09-11 21:00:00 -0700,15.7,17
2022-09-12 05:00:00 +0000,2022-09-11 22:00:00 -0700,143.7,80.3
2022-09-12 06:00:00 +0000,2022-09-11 23:00:00 -0700,276.7,178.5
2022-09-12 07:00:00 +0000,2022-09-12 00:00:00 -0700,156.1,167.3
2022-09-12 08:00:00 +0000,2022-09-12 01:00:00 -0700,24.4,95.8
2022-09-12 09:00:00 +0000,2022-09-12 02:00:00 -0700,23.8,59.8
2022-09-12 10:00:00 +0000,2022-09-12 03:00:00 -0700,24,41.9
2022-09-12 11:00:00 +0000,2022-09-12 04:00:00 -0700,28.3,35.1
2022-09-12 12:00:00 +0000,2022-09-12 05:00:00 -0700,25.6,30.3
2022-09-12 13:00:00 +0000,2022-09-12 06:00:00 -0700,25.6,27.9
2022-09-12 14:00:00 +0000,2022-09-12 07:00:00 -0700,41.7,34.8
2022-09-12 15:00:00 +0000,2022-09-12 08:00:00 -0700,35.5,35.1
2022-09-12 16:00:00 +0000,2022-09-12 09:00:00 -0700,48.5,41.8
2022-09-12 17:00:00 +0000,2022-09-12 10:00:00 -0700,43.3,42.5
2022-09-12 18:00:00 +0000,2022-09-12 11:00:00 -0700,40.5,41.5
2022-09-12 19:00:00 +0000,2022-09-12 12:00:00 -0700,47.6,44.5
2022-09-12 20:00:00 +0000,2022-09-12 13:00:00 -0700,35.4,39.9
2022-09-12 21:00:00 +0000,2022-09-12 14:00:00 -0700,26.8,33.3
2022-09-12 22:00:00 +0000,2022-09-12 15:00:00 -0700,27.6,30.8
2022-09-12 23:00:00 +0000,2022-09-12 16:00:00 -0700,27.8,29.4
2022-09-13 00:00:00 +0000,2022-09-12 17:00:00 -0700,24.9,27.1
2022-09-13 01:00:00 +0000,2022-09-12 18:00:00 -0700,20.9,23.9
2022-09-13 02:00:00 +0000,2022-09-12 19:00:00 -0700,23.8,23.8
2022-09-13 03:00:00 +0000,2022-09-12 20:00:00 -0700,23.2,23.5
2022-09-13 04:00:00 +0000,2022-09-12 21:00:00 -0700,22,22.7
2022-09-13 05:00:00 +0000,2022-09-12 22:00:00 -0700,18.5,20.6
2022-09-13 06:00:00 +0000,2022-09-12 23:00:00 -0700,16.3,18.4
2022-09-13 07:00:00 +0000,2022-09-13 00:00:00 -0700,15.7,17
2022-09-13 08:00:00 +0000,2022-09-13 01:00:00 -0700,12.5,14.7
2022-09-13 09:00:00 +0000,2022-09-13 02:00:00 -0700,12,13.3
2022-09-13 10:00:00 +0000,2022-09-13 03:00:00 -0700,12.9,13.1
2022-09-13 11:00:00 +0000,2022-09-13 04:00:00 -0700,13.5,13.3
2022-09-13 12:00:00 +0000,2022-09-13 05:00:00 -0700,14.3,13.8
2022-09-13 13:00:00 +0000,2022-09-13 06:00:00 -0700,14.9,14.3
2022-09-13 14:00:00 +0000,2022-09-13 07:00:00 -0700,16.9,15.5
2022-09-13 15:00:00 +0000,2022-09-13 08:00:00 -0700,17.2,16.2
2022-09-13 16:00:00 +0000,2022-09-13 09:00:00 -0700,17.9,16.5
2022-09-13 17:00:00 +0000,2022-09-13 10:00:00 -0700,19.6,17.8
2022-09-13 18:00:00 +0000,2022-09-13 11:00:00 -0700,19.8,18.6
2022-09-13 19:00:00 +0000,2022-09-13 12:00:00 -0700,17.2,18
2022-09-13 20:00:00 +0000,2022-09-13 13:00:00 -0700,16.4,17.4
2022-09-13 21:00:00 +0000,2022-09-13 14:00:00 -0700,12.7,15.7
2022-09-13 22:00:00 +0000,2022-09-13 15:00:00 -0700,10.8,13.2
2022-09-13 23:00:00 +0000,2022-09-13 16:00:00 -0700,9.7,11.2
2022-09-14 00:00:00 +0000,2022-09-13 17:00:00 -0700,8.8,10
2022-09-14 01:00:00 +0000,2022-09-13 18:00:00 -0700,9.3,9.6
2022-09-14 02:00:00 +0000,2022-09-13 19:00:00 -0700,9.5,9.5
2022-09-14 03:00:00 +0000,2022-09-13 20:00:00 -0700,7.2,8.3
2022-09-14 04:00:00 +0000,2022-09-13 21:00:00 -0700,6.3,7.3
2022-09-14 05:00:00 +0000,2022-09-13 22:00:00 -0700,5,6.1
2022-09-14 06:00:00 +0000,2022-09-13 23:00:00 -0700,4.7,5.4
2022-09-14 07:00:00 +0000,2022-09-14 00:00:00 -0700,4.9,5.1
2022-09-14 08:00:00 +0000,2022-09-14 01:00:00 -0700,5.4,5.2
2022-09-14 09:00:00 +0000,2022-09-14 02:00:00 -0700,5.8,5.5
2022-09-14 10:00:00 +0000,2022-09-14 03:00:00 -0700,5.9,5.7
2022-09-14 11:00:00 +0000,2022-09-14 04:00:00 -0700,6.4,6
2022-09-14 12:00:00 +0000,2022-09-14 05:00:00 -0700,7.1,6.5
2022-09-14 13:00:00 +0000,2022-09-14 06:00:00 -0700,8.5,7.5
2022-09-14 14:00:00 +0000,2022-09-14 07:00:00 -0700,11.4,9.4
2022-09-14 15:00:00 +0000,2022-09-14 08:00:00 -0700,11.4,10.4
2022-09-14 16:00:00 +0000,2022-09-14 09:00:00 -0700,8.5,9.4
2022-09-14 17:00:00 +0000,2022-09-14 10:00:00 -0700,5.5,7.4
2022-09-14 18:00:00 +0000,2022-09-14 11:00:00 -0700,4.9,6.1
2022-09-14 19:00:00 +0000,2022-09-14 12:00:00 -0700,4.7,5.4
2022-09-14 20:00:00 +0000,2022-09-14 13:00:00 -0700,4.7,5
2022-09-14 21:00:00 +0000,2022-09-14 14:00:00 -0700,3.8,4.4
2022-09-14 22:00:00 +0000,2022-09-14 15:00:00 -0700,3.4,3.9
2022-09-14 23:00:00 +0000,2022-09-14 16:00:00 -0700,2.5,3.2
2022-09-15 00:00:00 +0000,2022-09-14 17:00:00 -0700,2.6,2.9
2022-09-15 01:00:00 +0000,2022-09-14 18:00:00 -0700,4.3,3.6
2022-09-15 02:00:00 +0000,2022-09-14 19:00:00 -0700,5.4,4.4
2022-09-15 03:00:00 +0000,2022-09-14 20:00:00 -0700,4.7,4.5
2022-09-15 04:00:00 +0000,2022-09-14 21:00:00 -0700,5.1,4.8
2022-09-15 05:00:00 +0000,2022-09-14 22:00:00 -0700,6.9,5.8
2022-09-15 06:00:00 +0000,2022-09-14 23:00:00 -0700,6.5,6.1
2022-09-15 07:00:00 +0000,2022-09-15 00:00:00 -0700,5.8,5.9
2022-09-15 08:00:00 +0000,2022-09-15 01:00:00 -0700,6.4,6.1
2022-09-15 09:00:00 +0000,2022-09-15 02:00:00 -0700,6.5,6.3
2022-09-15 10:00:00 +0000,2022-09-15 03:00:00 -0700,6.9,6.6
2022-09-15 11:00:00 +0000,2022-09-15 04:00:00 -0700,6.3,6.4
2022-09-15 12:00:00 +0000,2022-09-15 05:00:00 -0700,8.3,7.3
2022-09-15 13:00:00 +0000,2022-09-15 06:00:00 -0700,7.9,7.5
2022-09-15 14:00:00 +0000,2022-09-15 07:00:00 -0700,10.2,8.9
2022-09-15 15:00:00 +0000,2022-09-15 08:00:00 -0700,12.4,10.6
2022-09-15 16:00:00 +0000,2022-09-15 09:00:00 -0700,7.6,9.1
2022-09-15 17:00:00 +0000,2022-09-15 10:00:00 -0700,5.8,7.4
2022-09-15 18:00:00 +0000,2022-09-15 11:00:00 -0700,5.6,6.5
2022-09-15 19:00:00 +0000,2022-09-15 12:00:00 -0700,8.9,7.7
2022-09-15 20:00:00 +0000,2022-09-15 13:00:00 -0700,16.3,12
2022-09-15 21:00:00 +0000,2022-09-15 14:00:00 -0700,19.4,15.7
2022-09-15 22:00:00 +0000,2022-09-15 15:00:00 -0700,15,15.3
2022-09-15 23:00:00 +0000,2022-09-15 16:00:00 -0700,11,13.1
2022-09-16 00:00:00 +0000,2022-09-15 17:00:00 -0700,6.5,9.8
2022-09-16 01:00:00 +0000,2022-09-15 18:00:00 -0700,4.5,7.1
2022-09-16 02:00:00 +0000,2022-09-15 19:00:00 -0700,4.8,5.9
2022-09-16 03:00:00 +0000,2022-09-15 20:00:00 -0700,5.1,5.5
2022-09-16 04:00:00 +0000,2022-09-15 21:00:00 -0700,12,8.7
2022-09-16 05:00:00 +0000,2022-09-15 22:00:00 -0700,162,85.4
2022-09-16 06:00:00 +0000,2022-09-15 23:00:00 -0700,118.7,102
2022-09-16 07:00:00 +0000,2022-09-16 00:00:00 -0700,98.1,100
2022-09-16 08:00:00 +0000,2022-09-16 01:00:00 -0700,86,93
2022-09-16 09:00:00 +0000,2022-09-16 02:00:00 -0700,73.2,83.1
2022-09-16 10:00:00 +0000,2022-09-16 03:00:00 -0700,63.2,73.1
2022-09-16 11:00:00 +0000,2022-09-16 04:00:00 -0700,67.5,70.3
2022-09-16 12:00:00 +0000,2022-09-16 05:00:00 -0700,77.1,73.7
2022-09-16 13:00:00 +0000,2022-09-16 06:00:00 -0700,52.9,63.3
2022-09-16 14:00:00 +0000,2022-09-16 07:00:00 -0700,72.1,67.7
2022-09-16 15:00:00 +0000,2022-09-16 08:00:00 -0700,58,62.8
2022-09-16 16:00:00 +0000,2022-09-16 09:00:00 -0700,39.8,51.3
2022-09-16 17:00:00 +0000,2022-09-16 10:00:00 -0700,49.4,50.3
2022-09-16 18:00:00 +0000,2022-09-16 11:00:00 -0700,46.9,48.6
2022-09-16 19:00:00 +0000,2022-09-16 12:00:00 -0700,30.9,39.7
2022-09-16 20:00:00 +0000,2022-09-16 13:00:00 -0700,25.1,32.4
2022-09-16 21:00:00 +0000,2022-09-16 14:00:00 -0700,23.2,27.8
2022-09-16 22:00:00 +0000,2022-09-16 15:00:00 -0700,20.1,23.9
2022-09-16 23:00:00 +0000,2022-09-16 16:00:00 -0700,8.6,16.2
2022-09-17 00:00:00 +0000,2022-09-16 17:00:00 -0700,5.1,10.6
2022-09-17 01:00:00 +0000,2022-09-16 18:00:00 -0700,4.7,7.6
2022-09-17 02:00:00 +0000,2022-09-16 19:00:00 -0700,6.9,7.2
2022-09-17 03:00:00 +0000,2022-09-16 20:00:00 -0700,8.3,7.7
2022-09-17 04:00:00 +0000,2022-09-16 21:00:00 -0700,42.7,25.2
2022-09-17 05:00:00 +0000,2022-09-16 22:00:00 -0700,92.5,58.8
2022-09-17 06:00:00 +0000,2022-09-16 23:00:00 -0700,91.4,75.1
2022-09-17 07:00:00 +0000,2022-09-17 00:00:00 -0700,76.6,75.8
2022-09-17 08:00:00 +0000,2022-09-17 01:00:00 -0700,60.5,68.1
2022-09-17 09:00:00 +0000,2022-09-17 02:00:00 -0700,43,55.5
2022-09-17 10:00:00 +0000,2022-09-17 03:00:00 -0700,36.2,45.9
2022-09-17 11:00:00 +0000,2022-09-17 04:00:00 -0700,49.6,47.7
2022-09-17 12:00:00 +0000,2022-09-17 05:00:00 -0700,64.1,55.9
2022-09-17 13:00:00 +0000,2022-09-17 06:00:00 -0700,32.1,44
2022-09-17 14:00:00 +0000,2022-09-17 07:00:00 -0700,47.9,45.9
2022-09-17 15:00:00 +0000,2022-09-17 08:00:00 -0700,49.3,47.6
2022-09-17 16:00:00 +0000,2022-09-17 09:00:00 -0700,50.8,49.2
2022-09-17 17:00:00 +0000,2022-09-17 10:00:00 -0700,45.1,47.1
2022-09-17 18:00:00 +0000,2022-09-17 11:00:00 -0700,28.7,37.9
2022-09-17 19:00:00 +0000,2022-09-17 12:00:00 -0700,22.8,30.3
2022-09-17 20:00:00 +0000,2022-09-17 13:00:00 -0700,12.2,21.2
2022-09-17 21:00:00 +0000,2022-09-17 14:00:00 -0700,7,14.1
2022-09-17 22:00:00 +0000,2022-09-17 15:00:00 -0700,7.5,10.8
2022-09-17 23:00:00 +0000,2022-09-17 16:00:00 -0700,7.1,8.9
2022-09-18 00:00:00 +0000,2022-09-17 17:00:00 -0700,8.2,8.5
2022-09-18 01:00:00 +0000,2022-09-17 18:00:00 -0700,8.2,8.3
2022-09-18 02:00:00 +0000,2022-09-17 19:00:00 -0700,8.3,8.3
2022-09-18 03:00:00 +0000,2022-09-17 20:00:00 -0700,9.2,8.7
2022-09-18 04:00:00 +0000,2022-09-17 21:00:00 -0700,8.9,8.8
2022-09-18 05:00:00 +0000,2022-09-17 22:00:00 -0700,10.2,9.5
2022-09-18 06:00:00 +0000,2022-09-17 23:00:00 -0700,11.9,10.7
2022-09-18 07:00:00 +0000,2022-09-18 00:00:00 -0700,15.3,13
2022-09-18 08:00:00 +0000,2022-09-18 01:00:00 -0700,15.4,14.2
2022-09-18 09:00:00 +0000,2022-09-18 02:00:00 -0700,15.6,14.9
2022-09-18 10:00:00 +0000,2022-09-18 03:00:00 -0700,15.7,15.3
2022-09-18 11:00:00 +0000,2022-09-18 04:00:00 -0700,14.8,15
2022-09-18 12:00:00 +0000,2022-09-18 05:00:00 -0700,15.9,15.4
2022-09-18 13:00:00 +0000,2022-09-18 06:00:00 -0700,15.8,15.6
2022-09-18 14:00:00 +0000,2022-09-18 07:00:00 -0700,15.2,15.4
2022-09-18 15:00:00 +0000,2022-09-18 08:00:00 -0700,16,15.6
2022-09-18 16:00:00 +0000,2022-09-18 09:00:00 -0700,18.5,16.9
2022-09-18 17:00:00 +0000,2022-09-18 10:00:00 -0700,21.9,19.2
2022-09-18 18:00:00 +0000,2022-09-18 11:00:00 -0700,21.2,19.2
2022-09-18 19:00:00 +0000,2022-09-18 12:00:00 -0700,11,15.6
2022-09-18 20:00:00 +0000,2022-09-18 13:00:00 -0700,9.3,12.4
2022-09-18 21:00:00 +0000,2022-09-18 14:00:00 -0700,7.9,10.1
2022-09-18 22:00:00 +0000,2022-09-18 15:00:00 -0700,7.2,8.6
2022-09-18 23:00:00 +0000,2022-09-18 16:00:00 -0700,7,7.8
2022-09-19 00:00:00 +0000,2022-09-18 17:00:00 -0700,6.1,6.9
2022-09-19 01:00:00 +0000,2022-09-18 18:00:00 -0700,6.3,6.6
2022-09-19 02:00:00 +0000,2022-09-18 19:00:00 -0700,5.5,6
2022-09-19 03:00:00 +0000,2022-09-18 20:00:00 -0700,5.8,5.9
2022-09-19 04:00:00 +0000,2022-09-18 21:00:00 -0700,5.9,5.9
2022-09-19 05:00:00 +0000,2022-09-18 22:00:00 -0700,7.2,6.5
2022-09-19 06:00:00 +0000,2022-09-18 23:00:00 -0700,6.1,6.3
2022-09-19 07:00:00 +0000,2022-09-19 00:00:00 -0700,6.3,6.3
2022-09-19 08:00:00 +0000,2022-09-19 01:00:00 -0700,5.8,6.1
2022-09-19 09:00:00 +0000,2022-09-19 02:00:00 -0700,4.5,5.5
2022-09-19 10:00:00 +0000,2022-09-19 03:00:00 -0700,4.3,4.9
2022-09-19 11:00:00 +0000,2022-09-19 04:00:00 -0700,2.8,3.7
2022-09-19 12:00:00 +0000,2022-09-19 05:00:00 -0700,3.7,3.7
2022-09-19 13:00:00 +0000,2022-09-19 06:00:00 -0700,1.8,2.7
2022-09-19 14:00:00 +0000,2022-09-19 07:00:00 -0700,3.6,3.1
2022-09-19 15:00:00 +0000,2022-09-19 08:00:00 -0700,NA,NA
